Location: Erlenbrunn
(49.1717°N, 7.6142°E)
Time: 08:24:52
(UTC+00:00)

ARGOS - Pass Details

Date: 25 November 2020
Orbit: 820 x 835 km, 98.4° (Epoch: 25 January)

Event Time Altitude Azimuth Distance (km) Brightness Sun altitude
Exits shadow 18:19:42 52° 20° (NNE) 1,025 3.4 -25.9°
Drops below altitude 10° 18:24:00 10° 351° (N) 2,448 5.7 -26.6°
Sets 18:26:23 0° 348° (NNW) 3,383 6.5 -26.9°
